Time,TemperatureF,DewpointF,PressureIn,WindDirection,WindDirectionDegrees,WindSpeedMPH,WindSpeedGustMPH,Humidity,HourlyPrecipIn,Conditions,Clouds,dailyrainin,SoftwareType,DateUTC
2013-02-11 00:00:00,44.6,43.8,30.13,SE,135,3.1,6.0,97,0.00,,,0.34,pywws,2013-02-11 05:00:00,
2013-02-11 00:01:00,44.8,44.0,30.13,SE,135,5.4,11.4,97,0.00,,,0.00,pywws,2013-02-11 05:01:00,
2013-02-11 00:07:00,45.1,44.3,30.13,SE,135,6.0,10.7,97,0.00,,,0.00,pywws,2013-02-11 05:07:00,
2013-02-11 00:12:00,45.3,44.5,30.12,East,90,6.0,11.4,97,0.00,,,0.00,pywws,2013-02-11 05:12:00,
2013-02-11 00:18:00,45.5,44.7,30.12,South,180,6.0,9.8,97,0.00,,,0.00,pywws,2013-02-11 05:18:00,
2013-02-11 00:24:00,45.7,44.9,30.12,East,90,3.8,6.0,97,0.00,,,0.00,pywws,2013-02-11 05:24:00,
2013-02-11 00:29:00,45.9,45.1,30.12,East,90,6.0,10.7,97,0.00,,,0.00,pywws,2013-02-11 05:29:00,
2013-02-11 00:35:00,46.0,45.2,30.11,NW,315,5.4,11.4,97,0.00,,,0.00,pywws,2013-02-11 05:35:00,
2013-02-11 00:40:00,46.4,45.6,30.11,East,90,7.6,12.1,97,0.00,,,0.00,pywws,2013-02-11 05:40:00,
2013-02-11 00:46:00,46.6,45.8,30.12,SW,225,6.0,10.7,97,0.00,,,0.00,pywws,2013-02-11 05:46:00,
2013-02-11 00:52:00,46.8,46.0,30.12,East,90,5.4,9.2,97,0.00,,,0.00,pywws,2013-02-11 05:52:00,
2013-02-11 00:57:00,46.9,46.1,30.12,East,90,3.8,6.0,97,0.00,,,0.00,pywws,2013-02-11 05:57:00,
2013-02-11 01:03:00,46.9,46.1,30.12,SE,135,6.0,8.3,97,0.00,,,0.00,pywws,2013-02-11 06:03:00,
2013-02-11 01:08:00,47.1,46.6,30.12,NE,45,3.8,6.9,98,0.00,,,0.00,pywws,2013-02-11 06:08:00,
2013-02-11 01:14:00,47.3,46.8,30.11,NE,45,3.8,6.9,98,0.00,,,0.00,pywws,2013-02-11 06:14:00,
2013-02-11 01:20:00,47.3,46.8,30.11,SSE,158,7.6,11.4,98,0.00,,,0.00,pywws,2013-02-11 06:20:00,
2013-02-11 01:25:00,47.7,47.1,30.10,SE,135,3.8,6.9,98,0.00,,,0.00,pywws,2013-02-11 06:25:00,
2013-02-11 01:31:00,47.7,47.1,30.10,East,90,4.5,10.7,98,0.00,,,0.00,pywws,2013-02-11 06:31:00,
2013-02-11 01:36:00,47.7,47.1,30.10,South,180,8.3,11.4,98,0.00,,,0.00,pywws,2013-02-11 06:36:00,
2013-02-11 01:42:00,47.8,47.3,30.10,SE,135,6.0,10.7,98,0.00,,,0.00,pywws,2013-02-11 06:42:00,
2013-02-11 01:48:00,47.8,47.3,30.10,SE,135,4.5,5.4,98,0.00,,,0.00,pywws,2013-02-11 06:48:00,
2013-02-11 01:53:00,47.8,47.3,30.10,SE,135,3.8,6.9,98,0.00,,,0.00,pywws,2013-02-11 06:53:00,
2013-02-11 01:59:00,47.8,47.3,30.10,NE,45,3.8,6.0,98,0.00,,,0.00,pywws,2013-02-11 06:59:00,
2013-02-11 02:04:00,47.8,47.3,30.10,NE,45,2.2,5.4,98,0.00,,,0.00,pywws,2013-02-11 07:04:00,
2013-02-11 02:10:00,48.2,47.4,30.09,East,90,5.4,10.7,97,0.00,,,0.00,pywws,2013-02-11 07:10:00,
2013-02-11 02:16:00,48.2,47.4,30.08,East,90,4.5,10.7,97,0.00,,,0.00,pywws,2013-02-11 07:16:00,
2013-02-11 02:21:00,48.4,47.6,30.08,SE,135,3.1,4.5,97,0.00,,,0.00,pywws,2013-02-11 07:21:00,
2013-02-11 02:27:00,48.4,47.6,30.09,East,90,5.4,10.7,97,0.00,,,0.00,pywws,2013-02-11 07:27:00,
2013-02-11 02:32:00,48.7,47.9,30.08,East,90,3.1,6.0,97,0.00,,,0.00,pywws,2013-02-11 07:32:00,
2013-02-11 02:38:00,48.7,47.9,30.06,NE,45,6.0,7.6,97,0.00,,,0.00,pywws,2013-02-11 07:38:00,
2013-02-11 02:44:00,48.9,48.1,30.06,ESE,112,2.2,5.4,97,0.00,,,0.00,pywws,2013-02-11 07:44:00,
2013-02-11 02:49:00,48.9,48.1,30.06,SE,135,6.0,10.7,97,0.00,,,0.00,pywws,2013-02-11 07:49:00,
2013-02-11 02:55:00,49.1,48.3,30.06,SE,135,6.0,12.1,97,0.00,,,0.00,pywws,2013-02-11 07:55:00,
2013-02-11 03:02:00,49.3,48.5,30.08,South,180,2.2,6.0,97,0.00,,,0.00,pywws,2013-02-11 08:02:00,
2013-02-11 03:08:00,49.1,48.0,30.08,SSE,158,3.1,5.4,96,0.00,,,0.00,pywws,2013-02-11 08:08:00,
2013-02-11 03:13:00,49.1,48.0,30.07,SE,135,5.4,9.2,96,0.00,,,0.00,pywws,2013-02-11 08:13:00,
2013-02-11 03:17:00,49.1,48.0,30.06,East,90,2.2,5.4,96,0.00,,,0.00,pywws,2013-02-11 08:17:00,
2013-02-11 03:23:00,49.1,48.0,30.06,ENE,68,3.1,5.4,96,0.00,,,0.00,pywws,2013-02-11 08:23:00,
2013-02-11 03:28:00,48.9,47.8,30.06,WSW,248,2.2,3.8,96,0.00,,,0.00,pywws,2013-02-11 08:28:00,
2013-02-11 03:34:00,48.9,47.8,30.06,SE,135,1.6,3.8,96,0.00,,,0.00,pywws,2013-02-11 08:34:00,
2013-02-11 03:40:00,48.9,47.8,30.07,SE,135,3.1,6.9,96,0.00,,,0.00,pywws,2013-02-11 08:40:00,
2013-02-11 03:45:00,48.9,47.8,30.08,NE,45,2.2,3.8,96,0.00,,,0.00,pywws,2013-02-11 08:45:00,
2013-02-11 03:51:00,48.9,47.8,30.07,NE,45,1.6,2.2,96,0.00,,,0.00,pywws,2013-02-11 08:51:00,
2013-02-11 03:56:00,48.9,47.8,30.07,ESE,112,1.6,2.2,96,0.00,,,0.00,pywws,2013-02-11 08:56:00,
2013-02-11 04:02:00,48.9,47.8,30.07,NE,45,0.7,1.6,96,0.00,,,0.00,pywws,2013-02-11 09:02:00,
2013-02-11 04:08:00,48.9,47.8,30.07,SW,225,1.6,3.1,96,0.00,,,0.00,pywws,2013-02-11 09:08:00,
2013-02-11 04:13:00,48.9,47.8,30.06,West,270,2.2,3.1,96,0.00,,,0.00,pywws,2013-02-11 09:13:00,
2013-02-11 04:19:00,48.9,48.1,30.06,NE,45,3.1,4.5,97,0.00,,,0.00,pywws,2013-02-11 09:19:00,
2013-02-11 04:24:00,48.9,48.1,30.08,SSE,158,1.6,3.1,97,0.00,,,0.00,pywws,2013-02-11 09:24:00,
2013-02-11 04:30:00,49.1,48.3,30.07,SE,135,0.0,0.0,97,0.00,,,0.00,pywws,2013-02-11 09:30:00,
2013-02-11 04:36:00,49.1,48.3,30.07,East,90,0.0,0.7,97,0.00,,,0.00,pywws,2013-02-11 09:36:00,
2013-02-11 04:41:00,49.1,48.3,30.07,East,90,0.0,1.6,97,0.00,,,0.00,pywws,2013-02-11 09:41:00,
2013-02-11 04:47:00,49.1,48.3,30.08,NW,315,0.0,0.7,97,0.00,,,0.00,pywws,2013-02-11 09:47:00,
2013-02-11 04:52:00,49.1,48.3,30.09,East,90,0.7,3.1,97,0.00,,,0.00,pywws,2013-02-11 09:52:00,
2013-02-11 04:58:00,49.1,48.3,30.09,SE,135,2.2,3.8,97,0.00,,,0.00,pywws,2013-02-11 09:58:00,
2013-02-11 05:04:00,49.1,48.3,30.09,SE,135,1.6,3.1,97,0.00,,,0.00,pywws,2013-02-11 10:04:00,
2013-02-11 05:09:00,49.3,48.5,30.09,North,0,0.7,1.6,97,0.00,,,0.00,pywws,2013-02-11 10:09:00,
2013-02-11 05:15:00,49.3,48.5,30.09,East,90,0.7,1.6,97,0.00,,,0.00,pywws,2013-02-11 10:15:00,
2013-02-11 05:20:00,49.3,48.5,30.09,SW,225,1.6,3.1,97,0.00,,,0.00,pywws,2013-02-11 10:20:00,
2013-02-11 05:26:00,49.3,48.5,30.08,East,90,0.7,1.6,97,0.00,,,0.00,pywws,2013-02-11 10:26:00,
2013-02-11 05:32:00,49.3,48.5,30.08,South,180,0.7,1.6,97,0.00,,,0.00,pywws,2013-02-11 10:32:00,
2013-02-11 05:37:00,49.3,48.5,30.07,SE,135,3.1,5.4,97,0.00,,,0.00,pywws,2013-02-11 10:37:00,
2013-02-11 05:43:00,49.3,48.5,30.07,SE,135,2.2,3.1,97,0.00,,,0.00,pywws,2013-02-11 10:43:00,
2013-02-11 05:48:00,49.3,48.5,30.07,ENE,68,2.2,3.8,97,0.00,,,0.00,pywws,2013-02-11 10:48:00,
2013-02-11 05:54:00,49.3,48.5,30.06,SE,135,1.6,3.1,97,0.00,,,0.00,pywws,2013-02-11 10:54:00,
2013-02-11 06:00:00,49.3,48.5,30.06,SE,135,0.7,2.2,97,0.00,,,0.00,pywws,2013-02-11 11:00:00,
2013-02-11 06:05:00,49.1,48.3,30.06,NE,45,2.2,3.8,97,0.00,,,0.00,pywws,2013-02-11 11:05:00,
2013-02-11 06:11:00,49.1,48.6,30.05,WSW,248,2.2,3.8,98,0.00,,,0.00,pywws,2013-02-11 11:11:00,
2013-02-11 06:16:00,49.1,48.6,30.05,South,180,3.1,6.0,98,0.00,,,0.00,pywws,2013-02-11 11:16:00,
2013-02-11 06:22:00,49.1,48.6,30.05,South,180,0.7,3.8,98,0.00,,,0.00,pywws,2013-02-11 11:22:00,
2013-02-11 06:28:00,49.3,48.7,30.06,East,90,2.2,4.5,98,0.00,,,0.00,pywws,2013-02-11 11:28:00,
2013-02-11 06:33:00,49.3,48.7,30.05,South,180,1.6,3.8,98,0.00,,,0.00,pywws,2013-02-11 11:33:00,
2013-02-11 06:39:00,49.3,48.7,30.05,SW,225,2.2,3.1,98,0.00,,,0.00,pywws,2013-02-11 11:39:00,
2013-02-11 06:44:00,49.5,48.9,30.05,SW,225,3.1,4.5,98,0.00,,,0.00,pywws,2013-02-11 11:44:00,
2013-02-11 06:50:00,49.6,48.8,30.05,East,90,2.2,3.8,97,0.00,,,0.00,pywws,2013-02-11 11:50:00,
2013-02-11 06:56:00,49.6,48.8,30.05,South,180,1.6,5.4,97,0.00,,,0.00,pywws,2013-02-11 11:56:00,
2013-02-11 07:02:00,49.8,49.0,30.06,SE,135,1.6,2.2,97,0.00,,,0.00,pywws,2013-02-11 12:02:00,
2013-02-11 07:08:00,49.6,48.8,30.07,ESE,112,0.7,1.6,97,0.00,,,0.00,pywws,2013-02-11 12:08:00,
2013-02-11 07:13:00,49.5,48.6,30.06,SE,135,0.0,0.7,97,0.00,,,0.00,pywws,2013-02-11 12:13:00,
2013-02-11 07:19:00,49.3,48.5,30.06,SSE,158,1.6,3.8,97,0.00,,,0.00,pywws,2013-02-11 12:19:00,
2013-02-11 07:24:00,49.3,48.5,30.06,SE,135,0.7,2.2,97,0.00,,,0.00,pywws,2013-02-11 12:24:00,
2013-02-11 07:30:00,49.3,48.5,30.06,South,180,3.1,3.8,97,0.00,,,0.00,pywws,2013-02-11 12:30:00,
2013-02-11 07:36:00,49.3,48.5,30.06,South,180,1.6,3.1,97,0.00,,,0.00,pywws,2013-02-11 12:36:00,
2013-02-11 07:41:00,49.5,48.6,30.07,SE,135,1.6,3.8,97,0.00,,,0.00,pywws,2013-02-11 12:41:00,
2013-02-11 07:47:00,49.5,48.6,30.06,South,180,3.1,4.5,97,0.00,,,0.00,pywws,2013-02-11 12:47:00,
2013-02-11 07:52:00,49.6,48.8,30.07,East,90,0.7,2.2,97,0.00,,,0.00,pywws,2013-02-11 12:52:00,
2013-02-11 07:58:00,49.6,48.8,30.07,South,180,1.6,3.1,97,0.00,,,0.00,pywws,2013-02-11 12:58:00,
2013-02-11 08:04:00,49.6,48.8,30.07,South,180,1.6,3.8,97,0.00,,,0.00,pywws,2013-02-11 13:04:00,
2013-02-11 08:09:00,49.5,48.6,30.06,South,180,3.8,5.4,97,0.00,,,0.00,pywws,2013-02-11 13:09:00,
2013-02-11 08:15:00,49.6,48.8,30.07,South,180,3.1,6.9,97,0.00,,,0.00,pywws,2013-02-11 13:15:00,
2013-02-11 08:20:00,49.6,48.8,30.08,South,180,2.2,3.1,97,0.00,,,0.00,pywws,2013-02-11 13:20:00,
2013-02-11 08:26:00,49.8,49.0,30.08,SW,225,3.1,4.5,97,0.00,,,0.00,pywws,2013-02-11 13:26:00,
2013-02-11 08:32:00,49.8,49.0,30.08,South,180,1.6,2.2,97,0.00,,,0.00,pywws,2013-02-11 13:32:00,
2013-02-11 08:37:00,49.8,49.0,30.07,North,0,0.7,1.6,97,0.00,,,0.00,pywws,2013-02-11 13:37:00,
2013-02-11 08:43:00,49.8,49.0,30.07,South,180,3.1,5.4,97,0.00,,,0.00,pywws,2013-02-11 13:43:00,
2013-02-11 08:48:00,49.8,49.0,30.07,SW,225,2.2,4.5,97,0.00,,,0.00,pywws,2013-02-11 13:48:00,
2013-02-11 08:54:00,49.8,49.0,30.08,West,270,2.2,3.8,97,0.00,,,0.00,pywws,2013-02-11 13:54:00,
2013-02-11 09:00:00,49.8,49.0,30.07,SE,135,1.6,3.1,97,0.00,,,0.00,pywws,2013-02-11 14:00:00,
2013-02-11 09:07:00,50.2,49.1,30.07,East,90,2.2,5.4,96,0.00,,,0.00,pywws,2013-02-11 14:07:00,
2013-02-11 09:12:00,50.4,49.3,30.07,SE,135,0.7,2.2,96,0.00,,,0.00,pywws,2013-02-11 14:12:00,
2013-02-11 09:18:00,50.5,49.4,30.07,SE,135,2.2,3.1,96,0.00,,,0.00,pywws,2013-02-11 14:18:00,
2013-02-11 09:24:00,50.7,49.6,30.06,NW,315,3.8,5.4,96,0.00,,,0.00,pywws,2013-02-11 14:24:00,
2013-02-11 09:29:00,50.7,49.6,30.06,South,180,3.1,4.5,96,0.00,,,0.00,pywws,2013-02-11 14:29:00,
2013-02-11 09:35:00,50.9,49.5,30.06,South,180,3.1,3.8,95,0.00,,,0.00,pywws,2013-02-11 14:35:00,
2013-02-11 09:40:00,51.6,50.2,30.06,East,90,1.6,3.1,95,0.01,,,0.01,pywws,2013-02-11 14:40:00,
2013-02-11 09:46:00,52.5,50.8,30.07,South,180,2.2,4.5,94,0.01,,,0.01,pywws,2013-02-11 14:46:00,
2013-02-11 09:52:00,53.4,51.4,30.07,SE,135,1.6,3.8,93,0.01,,,0.01,pywws,2013-02-11 14:52:00,
2013-02-11 09:57:00,54.0,51.4,30.07,ENE,68,0.7,2.2,91,0.01,,,0.01,pywws,2013-02-11 14:57:00,
2013-02-11 10:03:00,54.5,51.6,30.06,East,90,1.6,3.1,90,0.01,,,0.01,pywws,2013-02-11 15:03:00,
2013-02-11 10:09:00,54.3,50.8,30.06,SE,135,2.2,3.8,88,0.01,,,0.01,pywws,2013-02-11 15:09:00,
2013-02-11 10:15:00,54.1,50.7,30.06,WSW,248,2.2,3.8,88,0.01,,,0.01,pywws,2013-02-11 15:15:00,
2013-02-11 10:20:00,53.8,50.3,30.06,SSE,158,1.6,3.1,88,0.01,,,0.01,pywws,2013-02-11 15:20:00,
2013-02-11 10:26:00,54.0,50.5,30.06,East,90,1.6,3.1,88,0.01,,,0.01,pywws,2013-02-11 15:26:00,
2013-02-11 10:32:00,54.3,50.8,30.05,South,180,0.7,2.2,88,0.01,,,0.01,pywws,2013-02-11 15:32:00,
2013-02-11 10:37:00,54.3,50.8,30.05,South,180,0.7,2.2,88,0.00,,,0.01,pywws,2013-02-11 15:37:00,
2013-02-11 10:43:00,54.3,50.5,30.05,East,90,0.7,1.6,87,0.00,,,0.01,pywws,2013-02-11 15:43:00,
2013-02-11 10:48:00,54.9,51.1,30.06,SW,225,2.2,3.8,87,0.00,,,0.01,pywws,2013-02-11 15:48:00,
2013-02-11 10:54:00,54.7,50.9,30.06,SE,135,3.1,5.4,87,0.00,,,0.01,pywws,2013-02-11 15:54:00,
2013-02-11 11:00:00,54.5,50.4,30.07,South,180,1.6,3.1,86,0.00,,,0.01,pywws,2013-02-11 16:00:00,
2013-02-11 11:05:00,54.3,50.5,30.07,South,180,0.7,2.2,87,0.00,,,0.01,pywws,2013-02-11 16:05:00,
2013-02-11 11:11:00,54.5,50.7,30.07,SW,225,1.6,3.1,87,0.00,,,0.01,pywws,2013-02-11 16:11:00,
2013-02-11 11:16:00,54.9,51.1,30.08,South,180,3.1,4.5,87,0.00,,,0.01,pywws,2013-02-11 16:16:00,
2013-02-11 11:22:00,54.9,51.1,30.08,SW,225,0.7,1.6,87,0.00,,,0.01,pywws,2013-02-11 16:22:00,
2013-02-11 11:28:00,55.4,51.6,30.09,SW,225,0.7,2.2,87,0.00,,,0.01,pywws,2013-02-11 16:28:00,
2013-02-11 11:33:00,55.6,51.8,30.08,NE,45,0.7,3.1,87,0.00,,,0.01,pywws,2013-02-11 16:33:00,
2013-02-11 11:39:00,55.6,51.5,30.09,SE,135,0.0,1.6,86,0.00,,,0.01,pywws,2013-02-11 16:39:00,
2013-02-11 11:44:00,55.6,51.5,30.08,North,0,0.0,0.7,86,0.00,,,0.01,pywws,2013-02-11 16:44:00,
2013-02-11 11:52:00,55.4,51.3,30.08,NE,45,0.7,1.6,86,0.00,,,0.01,pywws,2013-02-11 16:52:00,
2013-02-11 11:57:00,55.2,51.1,30.07,NE,45,2.2,3.8,86,0.00,,,0.01,pywws,2013-02-11 16:57:00,
2013-02-11 12:03:00,54.9,50.8,30.06,NE,45,3.1,3.8,86,0.00,,,0.01,pywws,2013-02-11 17:03:00,
2013-02-11 12:08:00,54.7,50.6,30.05,NE,45,3.1,4.5,86,0.00,,,0.01,pywws,2013-02-11 17:08:00,
2013-02-11 12:14:00,54.9,50.4,30.05,NE,45,2.2,3.8,85,0.00,,,0.01,pywws,2013-02-11 17:14:00,
2013-02-11 12:20:00,55.4,51.3,30.05,NE,45,3.1,4.5,86,0.00,,,0.01,pywws,2013-02-11 17:20:00,
2013-02-11 12:25:00,55.8,51.3,30.04,North,0,1.6,3.8,85,0.00,,,0.01,pywws,2013-02-11 17:25:00,
2013-02-11 12:31:00,55.9,51.5,30.05,NW,315,0.0,0.7,85,0.00,,,0.01,pywws,2013-02-11 17:31:00,
2013-02-11 12:36:00,56.3,51.2,30.05,North,0,0.7,1.6,83,0.00,,,0.01,pywws,2013-02-11 17:36:00,
2013-02-11 12:42:00,55.9,50.2,30.05,North,0,0.7,2.2,81,0.00,,,0.01,pywws,2013-02-11 17:42:00,
2013-02-11 12:48:00,55.6,50.2,30.05,North,0,0.7,1.6,82,0.00,,,0.01,pywws,2013-02-11 17:48:00,
2013-02-11 12:53:00,55.9,50.5,30.04,NE,45,2.2,4.5,82,0.00,,,0.01,pywws,2013-02-11 17:53:00,
2013-02-11 12:59:00,55.9,50.2,30.04,North,0,2.2,3.8,81,0.00,,,0.01,pywws,2013-02-11 17:59:00,
2013-02-11 13:04:00,55.9,50.5,30.04,North,0,2.2,3.1,82,0.00,,,0.01,pywws,2013-02-11 18:04:00,
2013-02-11 13:10:00,56.1,50.7,30.04,West,270,0.7,1.6,82,0.00,,,0.01,pywws,2013-02-11 18:10:00,
2013-02-11 13:16:00,56.3,50.5,30.05,North,0,2.2,3.1,81,0.00,,,0.01,pywws,2013-02-11 18:16:00,
2013-02-11 13:21:00,55.9,50.5,30.06,NE,45,2.2,3.8,82,0.00,,,0.01,pywws,2013-02-11 18:21:00,
2013-02-11 13:27:00,55.8,50.3,30.07,North,0,0.7,3.1,82,0.00,,,0.01,pywws,2013-02-11 18:27:00,
2013-02-11 13:32:00,55.6,50.2,30.07,NE,45,1.6,3.1,82,0.00,,,0.01,pywws,2013-02-11 18:32:00,
2013-02-11 13:38:00,55.6,50.5,30.07,SW,225,0.7,1.6,83,0.00,,,0.01,pywws,2013-02-11 18:38:00,
2013-02-11 13:44:00,55.6,50.5,30.06,North,0,0.0,0.0,83,0.00,,,0.01,pywws,2013-02-11 18:44:00,
2013-02-11 13:49:00,55.6,50.5,30.06,NE,45,3.8,4.5,83,0.00,,,0.01,pywws,2013-02-11 18:49:00,
2013-02-11 13:55:00,55.6,50.5,30.05,NE,45,0.7,2.2,83,0.00,,,0.01,pywws,2013-02-11 18:55:00,
2013-02-11 14:00:00,55.9,50.9,30.04,North,0,0.0,0.0,83,0.00,,,0.01,pywws,2013-02-11 19:00:00,
2013-02-11 14:06:00,55.9,50.5,30.05,NE,45,2.2,5.4,82,0.00,,,0.01,pywws,2013-02-11 19:06:00,
2013-02-11 14:12:00,55.8,50.0,30.04,NE,45,3.1,4.5,81,0.00,,,0.01,pywws,2013-02-11 19:12:00,
2013-02-11 14:17:00,55.9,50.5,30.04,North,0,0.0,0.7,82,0.00,,,0.01,pywws,2013-02-11 19:17:00,
2013-02-11 14:23:00,56.3,50.5,30.04,North,0,0.7,2.2,81,0.00,,,0.01,pywws,2013-02-11 19:23:00,
2013-02-11 14:28:00,57.0,50.9,30.03,South,180,0.7,2.2,80,0.00,,,0.01,pywws,2013-02-11 19:28:00,
2013-02-11 14:34:00,58.1,51.3,30.03,NNE,22,1.6,3.1,78,0.00,,,0.01,pywws,2013-02-11 19:34:00,
2013-02-11 14:40:00,58.3,50.7,30.03,South,180,0.0,1.6,76,0.00,,,0.01,pywws,2013-02-11 19:40:00,
2013-02-11 14:45:00,59.2,50.9,30.03,South,180,0.0,0.7,74,0.00,,,0.01,pywws,2013-02-11 19:45:00,
2013-02-11 14:51:00,59.9,51.6,30.03,NE,45,0.0,1.6,74,0.00,,,0.01,pywws,2013-02-11 19:51:00,
2013-02-11 14:56:00,59.5,50.5,30.03,East,90,1.6,2.2,72,0.00,,,0.01,pywws,2013-02-11 19:56:00,
2013-02-11 15:02:00,58.6,50.4,30.03,NE,45,3.1,4.5,74,0.00,,,0.01,pywws,2013-02-11 20:02:00,
2013-02-11 15:08:00,57.6,49.3,30.03,East,90,1.6,2.2,74,0.00,,,0.01,pywws,2013-02-11 20:08:00,
2013-02-11 15:13:00,57.2,49.0,30.03,North,0,3.1,5.4,74,0.00,,,0.01,pywws,2013-02-11 20:13:00,
2013-02-11 15:19:00,56.8,49.0,30.04,NW,315,0.0,0.0,75,0.00,,,0.01,pywws,2013-02-11 20:19:00,
2013-02-11 15:24:00,57.2,49.0,30.04,NE,45,0.7,2.2,74,0.00,,,0.01,pywws,2013-02-11 20:24:00,
2013-02-11 15:31:00,57.2,48.6,30.03,North,0,0.7,1.6,73,0.00,,,0.01,pywws,2013-02-11 20:31:00,
2013-02-11 15:36:00,57.0,48.1,30.03,NE,45,2.2,3.8,72,0.00,,,0.01,pywws,2013-02-11 20:36:00,
2013-02-11 15:42:00,56.8,47.5,30.03,North,0,2.2,3.8,71,0.00,,,0.01,pywws,2013-02-11 20:42:00,
2013-02-11 15:48:00,56.7,46.2,30.04,NE,45,1.6,3.1,68,0.00,,,0.01,pywws,2013-02-11 20:48:00,
2013-02-11 15:53:00,56.3,45.9,30.04,North,0,0.7,1.6,68,0.00,,,0.01,pywws,2013-02-11 20:53:00,
2013-02-11 15:59:00,56.3,45.5,30.04,NE,45,0.7,1.6,67,0.00,,,0.01,pywws,2013-02-11 20:59:00,
2013-02-11 16:04:00,56.7,45.8,30.04,NE,45,2.2,3.8,67,0.00,,,0.01,pywws,2013-02-11 21:04:00,
2013-02-11 16:10:00,56.5,45.3,30.03,NE,45,2.2,3.8,66,0.00,,,0.01,pywws,2013-02-11 21:10:00,
2013-02-11 16:16:00,56.7,45.0,30.04,NE,45,3.8,5.4,65,0.00,,,0.01,pywws,2013-02-11 21:16:00,
2013-02-11 16:21:00,56.7,44.6,30.04,NE,45,0.0,1.6,64,0.00,,,0.01,pywws,2013-02-11 21:21:00,
2013-02-11 16:27:00,56.7,44.2,30.04,North,0,0.0,0.0,63,0.00,,,0.01,pywws,2013-02-11 21:27:00,
2013-02-11 16:32:00,56.5,43.2,30.03,NE,45,1.6,3.1,61,0.00,,,0.01,pywws,2013-02-11 21:32:00,
2013-02-11 16:38:00,55.9,42.7,30.04,North,0,0.0,0.0,61,0.00,,,0.01,pywws,2013-02-11 21:38:00,
2013-02-11 16:44:00,55.9,43.1,30.04,NE,45,0.0,0.7,62,0.00,,,0.01,pywws,2013-02-11 21:44:00,
2013-02-11 16:49:00,55.6,41.9,30.03,NE,45,2.2,3.8,60,0.00,,,0.01,pywws,2013-02-11 21:49:00,
2013-02-11 16:55:00,55.4,42.2,30.04,SW,225,0.0,0.0,61,0.00,,,0.01,pywws,2013-02-11 21:55:00,
2013-02-11 17:00:00,55.0,42.3,30.05,West,270,0.0,2.2,62,0.00,,,0.01,pywws,2013-02-11 22:00:00,
2013-02-11 17:06:00,54.9,42.1,30.04,NE,45,0.7,1.6,62,0.00,,,0.01,pywws,2013-02-11 22:06:00,
2013-02-11 17:12:00,54.9,42.5,30.05,SW,225,1.6,2.2,63,0.00,,,0.01,pywws,2013-02-11 22:12:00,
2013-02-11 17:17:00,55.0,43.9,30.04,South,180,0.0,0.0,66,0.00,,,0.01,pywws,2013-02-11 22:17:00,
2013-02-11 17:23:00,54.9,42.9,30.05,East,90,0.7,1.6,64,0.00,,,0.01,pywws,2013-02-11 22:23:00,
2013-02-11 17:28:00,54.3,42.0,30.04,NE,45,0.0,1.6,63,0.00,,,0.01,pywws,2013-02-11 22:28:00,
2013-02-11 17:34:00,53.8,41.1,30.05,SW,225,0.7,1.6,62,0.00,,,0.01,pywws,2013-02-11 22:34:00,
2013-02-11 17:40:00,53.4,40.7,30.05,SW,225,0.0,0.0,62,0.00,,,0.01,pywws,2013-02-11 22:40:00,
2013-02-11 17:45:00,53.1,40.4,30.03,SW,225,0.0,0.0,62,0.00,,,0.01,pywws,2013-02-11 22:45:00,
2013-02-11 17:51:00,53.1,40.4,30.04,SW,225,0.0,0.0,62,0.00,,,0.01,pywws,2013-02-11 22:51:00,
2013-02-11 17:56:00,52.5,40.7,30.04,NE,45,1.6,2.2,64,0.00,,,0.01,pywws,2013-02-11 22:56:00,
2013-02-11 18:02:00,52.2,39.5,30.05,NE,45,0.7,1.6,62,0.00,,,0.01,pywws,2013-02-11 23:02:00,
2013-02-11 18:08:00,52.0,39.8,30.04,NE,45,0.7,2.2,63,0.00,,,0.01,pywws,2013-02-11 23:08:00,
2013-02-11 18:13:00,51.6,39.4,30.05,NE,45,0.0,0.7,63,0.00,,,0.01,pywws,2013-02-11 23:13:00,
2013-02-11 18:19:00,51.4,39.7,30.06,South,180,0.7,1.6,64,0.00,,,0.01,pywws,2013-02-11 23:19:00,
2013-02-11 18:24:00,51.1,39.7,30.06,SW,225,1.6,1.6,65,0.00,,,0.01,pywws,2013-02-11 23:24:00,
2013-02-11 18:30:00,50.4,39.4,30.05,SW,225,1.6,2.2,66,0.00,,,0.01,pywws,2013-02-11 23:30:00,
2013-02-11 18:36:00,50.0,39.5,30.05,West,270,0.7,1.6,67,0.00,,,0.01,pywws,2013-02-11 23:36:00,
2013-02-11 18:41:00,49.5,39.3,30.05,South,180,0.7,1.6,68,0.00,,,0.01,pywws,2013-02-11 23:41:00,
2013-02-11 18:47:00,49.3,39.5,30.06,SW,225,1.6,2.2,69,0.00,,,0.01,pywws,2013-02-11 23:47:00,
2013-02-11 18:52:00,49.1,39.0,30.06,SW,225,2.2,3.1,68,0.00,,,0.01,pywws,2013-02-11 23:52:00,
2013-02-11 18:58:00,48.9,39.2,30.06,SW,225,0.7,1.6,69,0.00,,,0.01,pywws,2013-02-11 23:58:00,
2013-02-11 19:04:00,48.7,39.0,30.06,South,180,0.7,1.6,69,0.00,,,0.01,pywws,2013-02-12 00:04:00,
2013-02-11 19:09:00,48.4,39.1,30.06,SW,225,1.6,2.2,70,0.00,,,0.01,pywws,2013-02-12 00:09:00,
2013-02-11 19:15:00,48.0,39.1,30.07,SW,225,0.7,1.6,71,0.00,,,0.01,pywws,2013-02-12 00:15:00,
2013-02-11 19:20:00,47.8,38.9,30.07,SW,225,0.7,1.6,71,0.00,,,0.01,pywws,2013-02-12 00:20:00,
2013-02-11 19:26:00,47.7,38.7,30.06,South,180,0.7,1.6,71,0.00,,,0.01,pywws,2013-02-12 00:26:00,
2013-02-11 19:32:00,47.3,38.7,30.07,SW,225,0.0,0.7,72,0.00,,,0.01,pywws,2013-02-12 00:32:00,
2013-02-11 19:37:00,46.8,38.6,30.07,SW,225,0.0,0.0,73,0.00,,,0.01,pywws,2013-02-12 00:37:00,
2013-02-11 19:43:00,46.6,38.7,30.07,SW,225,0.0,0.0,74,0.00,,,0.01,pywws,2013-02-12 00:43:00,
2013-02-11 19:48:00,46.0,38.2,30.07,South,180,0.0,0.0,74,0.00,,,0.01,pywws,2013-02-12 00:48:00,
2013-02-11 19:54:00,45.7,37.9,30.06,SW,225,0.7,1.6,74,0.00,,,0.01,pywws,2013-02-12 00:54:00,
2013-02-11 20:00:00,45.5,38.0,30.06,South,180,0.0,0.7,75,0.00,,,0.01,pywws,2013-02-12 01:00:00,
2013-02-11 20:06:00,45.0,37.2,30.06,SW,225,0.7,1.6,74,0.00,,,0.01,pywws,2013-02-12 01:06:00,
2013-02-11 20:12:00,44.8,37.3,30.06,SW,225,0.7,2.2,75,0.00,,,0.01,pywws,2013-02-12 01:12:00,
2013-02-11 20:17:00,44.6,37.2,30.07,SW,225,0.7,1.6,75,0.00,,,0.01,pywws,2013-02-12 01:17:00,
2013-02-11 20:23:00,44.6,36.8,30.07,SW,225,2.2,3.1,74,0.00,,,0.01,pywws,2013-02-12 01:23:00,
2013-02-11 20:28:00,44.6,36.8,30.07,SW,225,1.6,2.2,74,0.00,,,0.01,pywws,2013-02-12 01:28:00,
2013-02-11 20:34:00,44.6,36.5,30.07,West,270,0.0,0.0,73,0.00,,,0.01,pywws,2013-02-12 01:34:00,
2013-02-11 20:40:00,44.2,36.5,30.07,SW,225,0.7,1.6,74,0.00,,,0.01,pywws,2013-02-12 01:40:00,
2013-02-11 20:45:00,43.9,36.5,30.07,NE,45,0.0,0.0,75,0.00,,,0.01,pywws,2013-02-12 01:45:00,
2013-02-11 20:51:00,43.2,36.1,30.07,SW,225,0.0,0.7,76,0.00,,,0.01,pywws,2013-02-12 01:51:00,
2013-02-11 20:56:00,43.0,35.9,30.07,SW,225,0.7,1.6,76,0.00,,,0.01,pywws,2013-02-12 01:56:00,
2013-02-11 21:02:00,42.8,35.8,30.07,South,180,0.7,1.6,76,0.00,,,0.01,pywws,2013-02-12 02:02:00,
2013-02-11 21:08:00,42.4,35.7,30.07,South,180,1.6,2.2,77,0.00,,,0.01,pywws,2013-02-12 02:08:00,
2013-02-11 21:13:00,42.1,35.7,30.07,SW,225,3.1,3.8,78,0.00,,,0.01,pywws,2013-02-12 02:13:00,
2013-02-11 21:19:00,42.1,36.0,30.07,SW,225,1.6,2.2,79,0.00,,,0.01,pywws,2013-02-12 02:19:00,
2013-02-11 21:24:00,41.9,35.9,30.07,SSW,202,0.7,1.6,79,0.00,,,0.01,pywws,2013-02-12 02:24:00,
2013-02-11 21:31:00,41.9,36.2,30.07,South,180,0.0,0.0,80,0.00,,,0.01,pywws,2013-02-12 02:31:00,
2013-02-11 21:36:00,41.7,36.0,30.08,SW,225,0.7,1.6,80,0.00,,,0.01,pywws,2013-02-12 02:36:00,
2013-02-11 21:42:00,41.7,36.0,30.09,SW,225,0.0,0.0,80,0.00,,,0.01,pywws,2013-02-12 02:42:00,
2013-02-11 21:48:00,41.7,35.7,30.08,North,0,0.0,1.6,79,0.00,,,0.01,pywws,2013-02-12 02:48:00,
2013-02-11 21:54:00,41.4,36.0,30.08,South,180,0.7,2.2,81,0.00,,,0.01,pywws,2013-02-12 02:54:00,
2013-02-11 22:00:00,41.4,36.0,30.08,SW,225,0.0,1.6,81,0.00,,,0.01,pywws,2013-02-12 03:00:00,
2013-02-11 22:05:00,41.4,35.7,30.08,SW,225,0.7,1.6,80,0.00,,,0.01,pywws,2013-02-12 03:05:00,
2013-02-11 22:11:00,41.5,35.5,30.08,SW,225,0.7,1.6,79,0.00,,,0.01,pywws,2013-02-12 03:11:00,
2013-02-11 22:16:00,41.7,35.4,30.08,SW,225,0.7,1.6,78,0.00,,,0.01,pywws,2013-02-12 03:16:00,
2013-02-11 22:22:00,42.1,34.7,30.08,NE,45,0.7,2.2,75,0.00,,,0.01,pywws,2013-02-12 03:22:00,
2013-02-11 22:28:00,42.3,35.2,30.07,North,0,0.7,2.2,76,0.00,,,0.01,pywws,2013-02-12 03:28:00,
2013-02-11 22:34:00,42.6,34.9,30.08,NW,315,0.0,0.7,74,0.00,,,0.01,pywws,2013-02-12 03:34:00,
2013-02-11 22:40:00,43.7,33.8,30.08,East,90,0.7,1.6,68,0.00,,,0.01,pywws,2013-02-12 03:40:00,
2013-02-11 22:45:00,44.4,33.4,30.08,North,0,0.0,0.0,65,0.00,,,0.01,pywws,2013-02-12 03:45:00,
2013-02-11 22:51:00,44.6,33.2,30.08,North,0,0.0,0.7,64,0.00,,,0.01,pywws,2013-02-12 03:51:00,
2013-02-11 22:56:00,44.6,33.2,30.08,West,270,0.7,1.6,64,0.00,,,0.01,pywws,2013-02-12 03:56:00,
2013-02-11 23:02:00,44.6,33.2,30.07,West,270,0.7,2.2,64,0.00,,,0.01,pywws,2013-02-12 04:02:00,
2013-02-11 23:08:00,44.1,33.4,30.06,West,270,0.7,2.2,66,0.00,,,0.01,pywws,2013-02-12 04:08:00,
2013-02-11 23:13:00,43.9,33.3,30.07,West,270,0.0,0.0,66,0.00,,,0.01,pywws,2013-02-12 04:13:00,
2013-02-11 23:19:00,43.7,33.1,30.06,NE,45,3.1,4.5,66,0.00,,,0.01,pywws,2013-02-12 04:19:00,
2013-02-11 23:24:00,44.2,33.2,30.06,North,0,0.0,0.7,65,0.00,,,0.01,pywws,2013-02-12 04:24:00,
2013-02-11 23:30:00,44.2,32.8,30.07,West,270,0.7,1.6,64,0.00,,,0.01,pywws,2013-02-12 04:30:00,
2013-02-11 23:36:00,44.1,32.7,30.08,NW,315,0.0,0.0,64,0.00,,,0.01,pywws,2013-02-12 04:36:00,
2013-02-11 23:42:00,43.9,32.9,30.08,NW,315,0.0,0.7,65,0.00,,,0.01,pywws,2013-02-12 04:42:00,
2013-02-11 23:48:00,43.9,32.5,30.08,NW,315,0.7,2.2,64,0.00,,,0.01,pywws,2013-02-12 04:48:00,
2013-02-11 23:53:00,44.2,32.5,30.08,NW,315,0.7,2.2,63,0.00,,,0.01,pywws,2013-02-12 04:53:00,
2013-02-11 23:59:00,44.6,32.0,30.09,NE,45,1.6,3.1,61,0.00,,,0.01,pywws,2013-02-12 04:59:00,